Home > Weather > Beaumont > Past weeks

Flag for USA Past Weather in Beaumont, Texas, USA — Yesterday and Last 2 Weeks

Now
87 °F

Scattered clouds.


Feels Like: 100 °F
Forecast: 78 / 89 °F
Wind: 7 mph from North

Location: Jefferson County Airport

Current Time: Jul 25, 2016 at 11:03:18 AM

Latest Report: Jul 25, 2016 at 9:53 AM


Visibility: 10 mi

Pressure: 29.95 "Hg

Humidity: 75%

Dew Point: 78 °F

Location of BeaumontLocation

Past Weather in Beaumont — Graph

°F

Beaumont Temperature Yesterday

Maximum temperature yesterday: 95 °F (at 1:53 PM)
Minimum temperature yesterday: 78 °F (at 4:53 AM)
Average temperature yesterday: 85 °F

High & Low Weather Summary for the Past Weeks

 TemperatureHumidityPressure
High97 °F (Jul 22, 12:53 PM)100% (Jul 21, 4:53 AM)30.19 "Hg (Jul 21, 4:53 AM)
Low75 °F (Jul 21, 5:53 AM)44% (Jul 21, 1:53 PM)29.90 "Hg (Jul 23, 5:53 PM)
Average84 °F78%30.03 "Hg
* Reported Jul 10 9:53 AM — Jul 25 9:53 AM, Beaumont, Weather by CustomWeather, © 2016

Note: Actual official high and low records may vary slightly from our data, if they occured in-between our weather recording intervals... More about our weather records

Advertising

Beaumont Weather History for the Previous 24 Hours

Scroll right to see more
 ConditionsComfort  
Time TempWeatherWind HumidityBarometerVisibility
9:53 AM
Mon, Jul 25
87 °FScattered clouds.7 mph75%29.95 "Hg10 mi
8:53 AM86 °FSunny.3 mph80%29.96 "Hg10 mi
7:53 AM82 °FPassing clouds.No wind88%29.96 "Hg10 mi
6:53 AM79 °FPassing clouds.6 mph94%29.95 "Hg10 mi
5:53 AM79 °FClear.3 mph94%29.93 "Hg10 mi
4:53 AM79 °FPassing clouds.3 mph94%29.91 "Hg10 mi
3:53 AM79 °FPassing clouds.3 mph94%29.91 "Hg10 mi
2:53 AM79 °FClear.No wind94%29.91 "Hg10 mi
1:53 AM80 °FClear.No wind90%29.93 "Hg10 mi
12:53 AM79 °FClear.3 mph94%29.92 "Hg10 mi
11:53 PM
Sun, Jul 24
80 °FClear.No wind90%29.95 "Hg10 mi
10:53 PM81 °FLight rain. Clear.No wind88%29.96 "Hg10 mi
9:53 PM82 °FClear.3 mph85%29.94 "Hg10 mi
8:53 PM83 °FPassing clouds.3 mph82%29.92 "Hg10 mi
7:53 PM85 °FScattered clouds.6 mph77%29.92 "Hg10 mi
6:53 PM88 °FPassing clouds.9 mph67%29.90 "Hg10 mi
5:53 PM91 °FSunny.10 mph61%29.90 "Hg10 mi
4:53 PM89 °FPartly sunny.7 mph59%29.90 "Hg10 mi
3:53 PM95 °FScattered clouds.8 mph54%29.90 "Hg10 mi
2:53 PM95 °FBroken clouds.5 mph54%29.91 "Hg10 mi
1:53 PM95 °FSunny.No wind52%29.94 "Hg10 mi
12:53 PM91 °FScattered clouds.No wind64%29.96 "Hg10 mi
11:53 AM87 °FPartly sunny.9 mph72%29.98 "Hg10 mi
11:00 AM88 °FPartly sunny.8 mph73%29.99 "Hg10 mi
Weather by CustomWeather, © 2016

See weather overviewHow to use our weather pages